Time,TemperatureF,DewpointF,PressureIn,WindDirection,WindDirectionDegrees,WindSpeedMPH,WindSpeedGustMPH,Humidity,HourlyPrecipIn,Conditions,Clouds,dailyrainin,SoftwareType,DateUTC
2013-01-18 00:00:00,38.6,34.2,30.38,SSW,213,0.0,0.0,84,0.00,,,0.00,VWS V14.01,2013-01-18 06:00:00,
2013-01-18 01:00:00,40.2,35.2,30.41,SW,217,0.0,6.0,82,0.00,,,0.00,VWS V14.01,2013-01-18 07:00:00,
2013-01-18 01:58:00,40.2,35.2,30.41,SW,217,0.0,6.0,82,0.00,,,0.00,VWS V14.01,2013-01-18 07:58:00,
2013-01-18 02:00:00,40.2,35.2,30.41,SW,217,0.0,6.0,82,0.00,,,0.00,VWS V14.01,2013-01-18 08:00:00,
2013-01-18 03:00:00,40.8,35.7,30.42,WSW,252,6.0,13.0,82,0.00,,,0.00,VWS V14.01,2013-01-18 09:00:00,
2013-01-18 03:58:00,40.8,35.7,30.42,WSW,252,6.0,13.0,82,0.00,,,0.00,VWS V14.01,2013-01-18 09:58:00,
2013-01-18 04:00:00,40.8,35.7,30.42,WSW,252,6.0,13.0,82,0.00,,,0.00,VWS V14.01,2013-01-18 10:00:00,
2013-01-18 05:00:00,37.9,34.4,30.42,WNW,297,4.0,15.0,87,0.00,,,0.00,VWS V14.01,2013-01-18 11:00:00,
2013-01-18 05:58:00,37.9,34.4,30.42,WNW,297,4.0,15.0,87,0.00,,,0.00,VWS V14.01,2013-01-18 11:58:00,
2013-01-18 06:00:00,37.9,34.4,30.42,WNW,297,4.0,15.0,87,0.00,,,0.00,VWS V14.01,2013-01-18 12:00:00,
2013-01-18 07:00:00,38.8,35.8,30.45,WSW,257,7.0,13.0,89,0.00,,,0.00,VWS V14.01,2013-01-18 13:00:00,
2013-01-18 07:58:00,38.8,35.8,30.45,WSW,257,7.0,13.0,89,0.00,,,0.00,VWS V14.01,2013-01-18 13:58:00,
2013-01-18 08:00:00,38.8,35.8,30.45,WSW,257,7.0,13.0,89,0.00,,,0.00,VWS V14.01,2013-01-18 14:00:00,
2013-01-18 09:00:00,49.4,37.8,30.47,WNW,290,6.0,11.0,64,0.00,,,0.00,VWS V14.01,2013-01-18 15:00:00,
2013-01-18 09:58:00,49.4,37.8,30.47,WNW,290,6.0,11.0,64,0.00,,,0.00,VWS V14.01,2013-01-18 15:58:00,
2013-01-18 10:00:00,49.4,37.8,30.47,WNW,290,6.0,11.0,64,0.00,,,0.00,VWS V14.01,2013-01-18 16:00:00,
2013-01-18 11:00:00,56.9,37.4,30.41,WNW,296,0.0,12.0,48,0.00,,,0.00,VWS V14.01,2013-01-18 17:00:00,
2013-01-18 11:58:00,56.9,37.4,30.41,WNW,296,0.0,12.0,48,0.00,,,0.00,VWS V14.01,2013-01-18 17:58:00,
2013-01-18 12:00:00,56.9,37.4,30.41,WNW,296,0.0,12.0,48,0.00,,,0.00,VWS V14.01,2013-01-18 18:00:00,
2013-01-18 13:00:00,64.7,36.4,30.36,SW,229,0.0,9.0,35,0.00,,,0.00,VWS V14.01,2013-01-18 19:00:00,
2013-01-18 13:58:00,64.7,36.4,30.36,SW,229,0.0,9.0,35,0.00,,,0.00,VWS V14.01,2013-01-18 19:58:00,
2013-01-18 14:00:00,64.7,36.4,30.36,SW,229,0.0,9.0,35,0.00,,,0.00,VWS V14.01,2013-01-18 20:00:00,
2013-01-18 15:00:00,63.5,36.8,30.33,NNW,327,0.0,10.0,37,0.00,,,0.00,VWS V14.01,2013-01-18 21:00:00,
2013-01-18 15:58:00,63.5,36.8,30.33,NNW,327,0.0,10.0,37,0.00,,,0.00,VWS V14.01,2013-01-18 21:58:00,
2013-01-18 16:00:00,63.5,36.8,30.33,NNW,327,0.0,10.0,37,0.00,,,0.00,VWS V14.01,2013-01-18 22:00:00,
2013-01-18 17:00:00,49.2,38.3,30.34,North,5,0.0,6.0,66,0.00,,,0.00,VWS V14.01,2013-01-18 23:00:00,
2013-01-18 17:58:00,49.2,38.3,30.34,North,5,0.0,6.0,66,0.00,,,0.00,VWS V14.01,2013-01-18 23:58:00,
2013-01-18 18:00:00,49.2,38.3,30.34,North,5,0.0,6.0,66,0.00,,,0.00,VWS V14.01,2013-01-19 00:00:00,
2013-01-18 19:00:00,42.3,36.3,30.36,North,5,0.0,0.0,79,0.00,,,0.00,VWS V14.01,2013-01-19 01:00:00,
2013-01-18 19:58:00,42.3,36.3,30.36,North,5,0.0,0.0,79,0.00,,,0.00,VWS V14.01,2013-01-19 01:58:00,
2013-01-18 20:00:00,42.3,36.3,30.36,North,5,0.0,0.0,79,0.00,,,0.00,VWS V14.01,2013-01-19 02:00:00,
2013-01-18 21:00:00,38.2,35.2,30.34,North,5,0.0,0.0,89,0.00,,,0.00,VWS V14.01,2013-01-19 03:00:00,
2013-01-18 21:58:00,38.2,35.2,30.34,North,5,0.0,0.0,89,0.00,,,0.00,VWS V14.01,2013-01-19 03:58:00,
2013-01-18 22:00:00,38.2,35.2,30.34,North,5,0.0,0.0,89,0.00,,,0.00,VWS V14.01,2013-01-19 04:00:00,
2013-01-18 23:00:00,37.8,35.7,30.33,North,5,0.0,0.0,92,0.00,,,0.00,VWS V14.01,2013-01-19 05:00:00,
2013-01-18 23:58:00,37.8,35.7,30.33,North,5,0.0,0.0,92,0.00,,,0.00,VWS V14.01,2013-01-19 05:58:00,